DL9LAF-4 Weather Reports


time (UTC)temp
F
wind
direction
speed
knots
gust
knots
rain 1hr
in
rain 24hr
in
rain mn
in
humidity
%
barometer
mb
20260506204556 50 45 0.0 0.0 0.00 0.00 0.00 64 988.9
20260506203556 50 45 0.0 0.0 0.00 0.00 0.00 64 988.7
20260506202556 51 45 0.0 0.0 0.00 0.00 0.00 63 988.7
20260506201556 51 45 0.0 0.0 0.00 0.00 0.00 62 988.5
20260506200556 51 45 0.0 0.0 0.00 0.00 0.00 61 988.5
20260506195556 51 45 0.0 0.0 0.00 0.00 0.00 60 988.4
20260506194556 52 45 0.0 0.0 0.00 0.00 0.00 59 988.2
20260506193556 52 45 0.0 0.0 0.00 0.00 0.00 58 988.2
20260506192556 53 45 0.0 0.0 0.00 0.00 0.00 57 988.0
20260506191556 54 45 0.0 0.0 0.00 0.00 0.00 56 988.0
20260506190556 55 45 0.0 0.0 0.00 0.00 0.00 55 988.0
20260506185556 55 45 0.0 0.0 0.00 0.00 0.00 54 987.7
20260506184556 55 45 0.0 0.0 0.00 0.00 0.00 53 987.7
20260506183556 56 45 0.0 0.0 0.00 0.00 0.00 52 987.5
20260506182556 56 45 0.0 0.0 0.00 0.00 0.00 51 987.4
20260506181556 57 45 0.0 0.0 0.00 0.00 0.00 50 987.4
20260506180556 57 315 159.0 0.0 0.00 0.00 0.00 49 987.2
20260506175556 58 45 0.0 0.0 0.00 0.00 0.00 48 987.2
20260506174556 59 315 159.0 0.0 0.00 0.00 0.00 47 987.2
20260506173556 59 67 0.0 0.0 0.00 0.00 0.00 47 987.0
20260506172556 60 315 159.0 0.0 0.00 0.00 0.00 46 987.0
20260506171556 61 67 0.0 0.0 0.00 0.00 0.00 45 986.9
20260506170556 61 67 0.0 0.0 0.00 0.00 0.00 44 987.0
20260506165556 62 22 0.0 0.0 0.00 0.00 0.00 44 987.0
20260506164556 62 45 0.0 0.0 0.00 0.00 0.00 44 986.9
20260506163556 62 45 0.0 0.0 0.00 0.00 0.00 43 986.9
20260506162556 62 45 0.0 0.0 0.00 0.00 0.00 43 986.7
20260506161556 62 225 159.0 0.0 0.00 0.00 0.00 43 986.9
20260506160556 62 45 0.0 0.0 0.00 0.00 0.00 43 986.7
20260506155556 62 45 0.0 0.0 0.00 0.00 0.00 43 986.7
20260506154556 62 315 79.1 0.0 0.00 0.00 0.00 43 986.7
20260506153556 62 315 79.1 0.0 0.00 0.00 0.00 43 986.9
20260506152556 62 45 0.0 0.0 0.00 0.00 0.00 43 986.7
20260506151556 62 45 0.0 0.0 0.00 0.00 0.00 42 986.7
20260506150556 63 315 39.1 0.0 0.00 0.00 0.00 42 986.7
20260506145556 63 315 39.1 0.0 0.00 0.00 0.00 44 986.7
20260506144556 64 67 0.0 0.0 0.00 0.00 0.00 43 986.9
20260506143556 64 67 0.0 0.0 0.00 0.00 0.00 43 986.7
20260506142556 64 22 0.0 0.0 0.00 0.00 0.00 45 986.9
20260506141556 64 22 0.0 0.0 0.00 0.00 0.00 45 986.9
20260506140556 64 22 0.0 0.0 0.00 0.00 0.00 46 987.0
20260506135556 64 337 119.0 0.0 0.00 0.00 0.00 46 986.9
20260506134556 64 45 0.0 0.0 0.00 0.00 0.00 46 986.9
20260506133556 64 292 79.1 0.0 0.00 0.00 0.00 46 986.9
20260506132556 64 270 79.1 0.0 0.00 0.00 0.00 46 986.7
20260506131556 65 22 0.0 0.0 0.00 0.00 0.00 46 986.5
20260506130556 65 22 0.0 0.0 0.00 0.00 0.00 47 986.5
20260506125556 64 270 79.1 0.0 0.00 0.00 0.00 46 986.5
20260506124556 64 22 0.0 0.0 0.00 0.00 0.00 47 986.5
20260506123556 64 337 49.5 0.0 0.00 0.00 0.00 47 986.5
20260506122556 64 45 0.0 0.0 0.00 0.00 0.00 47 986.5
20260506121556 64 270 79.1 0.0 0.00 0.00 0.00 48 986.5
20260506120556 63 45 0.0 0.0 0.00 0.00 0.00 49 986.5
20260506115556 63 45 0.0 0.0 0.00 0.00 0.00 49 986.4
20260506114556 63 45 0.0 0.0 0.00 0.00 0.00 48 986.4
20260506113556 63 22 0.0 0.0 0.00 0.00 0.00 50 986.4
20260506112556 63 22 0.0 0.0 0.00 0.00 0.00 50 986.5
20260506111556 62 45 0.0 0.0 0.00 0.00 0.00 51 986.7
20260506110556 62 45 0.0 0.0 0.00 0.00 0.00 50 986.7
20260506105556 62 22 0.0 0.0 0.00 0.00 0.00 50 986.7
20260506104556 61 45 0.0 0.0 0.00 0.00 0.00 51 986.7
20260506103556 61 45 0.0 0.0 0.00 0.00 0.00 52 986.7
20260506102556 61 22 0.0 0.0 0.00 0.00 0.00 52 986.7
20260506101556 61 22 0.0 0.0 0.00 0.00 0.00 52 986.7
20260506100556 60 337 9.6 0.0 0.00 0.00 0.00 54 986.7
20260506095556 60 45 0.0 0.0 0.00 0.00 0.00 54 986.9
20260506094556 60 22 0.0 0.0 0.00 0.00 0.00 56 986.9
20260506093556 59 22 0.0 0.0 0.00 0.00 0.00 57 987.0
20260506092556 59 270 79.1 0.0 0.00 0.00 0.00 57 987.0
20260506091556 59 22 0.0 0.0 0.00 0.00 0.00 59 987.0
20260506090556 58 22 0.0 0.0 0.00 0.00 0.00 59 986.9
20260506085556 58 22 0.0 0.0 0.00 0.00 0.00 61 986.7
20260506084556 57 22 0.0 0.0 0.00 0.00 0.00 61 986.9
20260506083556 57 22 0.0 0.0 0.00 0.00 0.00 63 986.9
20260506082556 56 22 0.0 0.0 0.00 0.00 0.00 64 986.9
20260506081556 56 22 0.0 0.0 0.00 0.00 0.00 66 986.7
20260506080556 55 22 0.0 0.0 0.00 0.00 0.00 66 986.7
20260506072556 53 45 0.0 0.0 0.00 0.00 0.00 71 986.7
20260506071556 52 0 0.0 0.0 0.00 0.00 0.00 73 986.7
20260506070556 52 0 0.0 0.0 0.00 0.00 0.00 75 986.7
20260506061555 47 315 159.0 0.0 0.00 0.00 0.00 84 986.7
20260506060556 46 22 0.0 0.0 0.00 0.00 0.00 85 986.7
20260506050555 42 315 159.0 0.0 0.00 0.00 0.00 87 986.7
20260506044555 42 22 0.0 0.0 0.00 0.00 0.00 86 986.7
20260506043555 41 22 0.0 0.0 0.00 0.00 0.00 86 986.7
20260506042555 41 22 0.0 0.0 0.00 0.00 0.00 86 986.7
20260506041555 41 22 0.0 0.0 0.00 0.00 0.00 86 986.7
20260506040555 40 22 0.0 0.0 0.00 0.00 0.00 85 986.5
20260506035555 40 22 0.0 0.0 0.00 0.00 0.00 85 986.7
20260506034555 40 22 0.0 0.0 0.00 0.00 0.00 85 986.5
20260506033555 40 22 0.0 0.0 0.00 0.00 0.00 84 986.7
20260506032555 40 270 159.0 0.0 0.00 0.00 0.00 84 986.5
20260506031555 40 22 0.0 0.0 0.00 0.00 0.00 84 986.7
20260506030555 40 22 0.0 0.0 0.00 0.00 0.00 84 986.9
20260506025555 40 22 0.0 0.0 0.00 0.00 0.00 83 986.7
20260506024555 40 270 159.0 0.0 0.00 0.00 0.00 83 986.9
20260506023555 40 22 0.0 0.0 0.00 0.00 0.00 83 987.0
20260506022555 40 337 79.1 0.0 0.00 0.00 0.00 83 987.0
20260506021555 41 270 159.0 0.0 0.00 0.00 0.00 82 987.2
20260506020555 41 270 159.0 0.0 0.00 0.00 0.00 82 987.2
20260506015555 41 270 159.0 0.0 0.00 0.00 0.00 82 987.0
20260506014555 41 22 0.0 0.0 0.00 0.00 0.00 82 987.2
20260506013555 41 22 0.0 0.0 0.00 0.00 0.00 81 987.4
20260506012555 41 22 0.0 0.0 0.00 0.00 0.00 81 987.4
20260506011555 42 22 0.0 0.0 0.00 0.00 0.00 81 987.4
20260506010555 42 22 0.0 0.0 0.00 0.00 0.00 81 987.4
20260506005555 42 22 0.0 0.0 0.00 0.00 0.00 81 987.4
20260506004555 42 337 79.1 0.0 0.00 0.00 0.00 80 987.5
20260506003555 42 337 79.1 0.0 0.00 0.00 0.00 80 987.4
20260506002555 42 337 79.1 0.0 0.00 0.00 0.00 79 987.4
20260506001555 43 22 0.0 0.0 0.00 0.00 0.00 79 987.2
20260506000555 43 22 0.0 0.0 0.00 0.00 0.00 79 987.4
20260505235555 43 337 79.1 0.0 0.00 0.00 0.00 78 987.5
20260505234555 44 22 0.0 0.0 0.00 0.00 0.00 78 987.7
20260505233555 44 22 0.0 0.0 0.00 0.00 0.00 78 987.7
20260505232555 44 270 159.0 0.0 0.00 0.00 0.00 78 987.7
20260505231555 44 270 159.0 0.0 0.00 0.00 0.00 78 987.7
20260505230555 45 22 0.0 0.0 0.00 0.00 0.00 77 987.7
20260505225555 45 22 0.0 0.0 0.00 0.00 0.00 77 987.7
20260505224555 45 22 0.0 0.0 0.00 0.00 0.00 77 987.7
20260505223555 45 22 0.0 0.0 0.00 0.00 0.00 77 987.7
20260505222555 45 22 0.0 0.0 0.00 0.00 0.00 76 987.7
20260505221555 45 22 0.0 0.0 0.00 0.00 0.00 76 987.7
20260505220555 46 22 0.0 0.0 0.00 0.00 0.00 76 987.7
20260505215555 46 22 0.0 0.0 0.00 0.00 0.00 76 987.7
20260505214555 46 22 0.0 0.0 0.00 0.00 0.00 76 987.9
20260505213555 46 22 0.0 0.0 0.00 0.00 0.00 76 988.0
20260505212555 46 22 0.0 0.0 0.00 0.00 0.00 76 987.9
20260505211555 46 22 0.0 0.0 0.00 0.00 0.00 76 988.0
20260505210555 47 22 0.0 0.0 0.00 0.00 0.00 76 987.9
20260505205555 47 22 0.0 0.0 0.00 0.00 0.00 76 987.7